This demonstration page uses our WeatherBlox Daily Observations layout. Learn more.

38.88101, -77.10428

Hourly Observations for October 18, 2020

Temp ( °F °C ) Dew Point ( °F °C ) Humidity (%) Winds ( mph kmh ) Pressure ( in mb ) Visibility ( mi km ) Precip ( " mm )
12:52 am 00:52 Mostly Clear 51 10.6 43 6.1 74 74 Calm 30.42 1030 10 16.0934 0 0
1:52 am 01:52 Clear 49 9.4 43 6.1 80 80 WSW 3 6 30.43 1031 10 16.0934 0 0
2:52 am 02:52 Clear 48 8.9 43 6.1 83 83 Calm 30.43 1030 10 16.0934 0 0
3:52 am 03:52 Mostly Clear 48 8.9 43 6.1 83 83 NE 5 7 30.42 1030 10 16.0934 0 0
4:52 am 04:52 Mostly Clear 48 8.9 44 6.7 86 86 Calm 30.43 1030 10 16.0934 0 0
5:52 am 05:52 Mostly Clear 46 7.8 42 5.6 86 86 N 5 7 30.44 1031 10 16.0934 0 0
6:52 am 06:52 Mostly Clear 46 7.8 43 6.1 89 89 NE 6 9 30.44 1031 10 16.0934 0 0
7:52 am 07:52 Mostly Sunny 46 7.8 43 6.1 89 89 NE 6 9 30.44 1031 10 16.0934 0 0
8:52 am 08:52 Mostly Sunny 51 10.6 43 6.1 74 74 Calm 30.45 1031 10 16.0934 0 0
9:52 am 09:52 Mostly Sunny 55 12.8 44 6.7 67 67 Calm 30.45 1031 10 16.0934 0 0
10:52 am 10:52 Mostly Sunny 59 15 45 7.2 60 60 Calm 30.44 1031 10 16.0934 0 0
11:52 am 11:52 Sunny 63 17.2 44 6.7 50 50 ESE 10 17 30.43 1031 10 16.0934 0 0
12:01 pm 12:01 Mostly Sunny 64 17.8 45 7.2 50 50 SE 10 17 30.43 1030 10 16.0934 0 0
12:52 pm 12:52 Mostly Cloudy 65 18.3 46 7.8 51 51 S 8 13 30.41 1030 10 16.0934 0 0
1:52 pm 13:52 Mostly Cloudy 65 18.3 46 7.8 51 51 S 9 15 30.38 1029 10 16.0934 0 0
2:52 pm 14:52 Mostly Cloudy 65 18.3 48 8.9 54 54 SSE 8 13 30.35 1028 9 14.48406 0 0
3:52 pm 15:52 Mostly Cloudy 64 17.8 48 8.9 56 56 S 7 11 30.34 1027 10 16.0934 0 0
4:52 pm 16:52 Mostly Cloudy 65 18.3 51 10.6 61 61 S 6 9 30.33 1027 10 16.0934 0 0
5:52 pm 17:52 Mostly Cloudy 63 17.2 51 10.6 65 65 SSE 5 7 30.32 1027 10 16.0934 0 0
6:52 pm 18:52 Cloudy 62 16.7 53 11.7 73 73 SSE 5 7 30.33 1027 10 16.0934 0 0
7:52 pm 19:52 Mostly Cloudy 62 16.7 53 11.7 73 73 SSE 8 13 30.33 1027 10 16.0934 0 0
8:52 pm 20:52 Mostly Cloudy 61 16.1 53 11.7 75 75 S 8 13 30.32 1027 10 16.0934 0 0
9:52 pm 21:52 Mostly Cloudy 60 15.6 53 11.7 78 78 SE 3 6 30.34 1027 10 16.0934 0 0
10:52 pm 22:52 Mostly Cloudy 60 15.6 53 11.7 78 78 SE 5 7 30.33 1027 10 16.0934 0 0
11:52 pm 23:52 Partly Cloudy 59 15 54 12.2 83 83 S 7 11 30.32 1027 10 16.0934 0 0

Powered by AerisWeather